Weather History for Orlando International, FL

Change the Weather History Date:

Saturday, November 9, 2013

  Actual Average Record
Temperature  
Mean Temperature 72 °F 70 °F  
Max Temperature 81 °F 80 °F 90 °F (1911)
Min Temperature 63 °F 60 °F 38 °F (1976)
Degree Days  
Heating Degree Days 0 1  
Month to date heating degree days 0 9  
Since 1 July heating degree days 0 14  
Cooling Degree Days 7 6  
Month to date cooling degree days 70 58  
Year to date cooling degree days 3430 3265  
Growing Degree Days 22 (Base 50)    
Moisture  
Dew Point 61 °F    
Average Humidity 71    
Maximum Humidity 90    
Minimum Humidity 51    
Precipitation  
Precipitation 0.00 in 0.07 in 2.20 in (1921)
Month to date precipitation 0.29 0.68  
Year to date precipitation 41.81 46.66  
Sea Level Pressure  
Sea Level Pressure 30.15 in    
Wind  
Wind Speed 9 mph (NE)    
Max Wind Speed 21 mph    
Max Gust Speed 24 mph    
Visibility 10 miles    
Events      
T = Trace of Precipitation, MM = Missing Value Source: NWS Daily Summary

Daily Weather History Graph

Daily Weather History Graph

Search for Another Location

Airport:

Trip Planner

Search our weather history database for the weather conditions in past years. The results will help you decide how hot, cold, wet, or windy it might be!

Date:

Astronomy

Nov. 09, 2013 Rise Set
Actual Time 6:43 AM EST 5:34 PM EST
Civil Twilight 6:18 AM EST 5:59 PM EST
Nautical Twilight 5:50 AM EST 6:27 PM EST
Astronomical Twilight 5:22 AM EST 6:55 PM EST
Moon 12:23 PM EST (11/9) 11:56 PM EST (11/9)
Length of Visible Light 11h 40m
Length of Day
10h 51m
Waxing Crescent, 44% of the Moon is Illuminated
Nov 9
Waxing Crescent
Nov 10
First Quarter
Nov 17
Full
Nov 25
Last Quarter
Dec 2
New

Hourly Weather History & Observations

Time (EST) Temp. Heat Index Dew Point Humidity Pressure Visibility Wind Dir Wind Speed Gust Speed Precip Events Conditions
12:53 AM 64.0 °F - 59.0 °F 84% 30.12 in 10.0 mi NNE 8.1 mph - N/A   Clear
1:53 AM 64.0 °F - 59.0 °F 84% 30.12 in 10.0 mi NNE 6.9 mph - N/A   Clear
2:53 AM 63.0 °F - 59.0 °F 87% 30.12 in 10.0 mi North 6.9 mph - N/A   Clear
3:53 AM 64.0 °F - 59.0 °F 84% 30.12 in 10.0 mi North 8.1 mph - N/A   Clear
4:53 AM 64.0 °F - 60.1 °F 87% 30.12 in 10.0 mi NNE 9.2 mph - N/A   Clear
5:53 AM 64.0 °F - 60.1 °F 87% 30.14 in 10.0 mi North 4.6 mph - N/A   Scattered Clouds
6:53 AM 64.9 °F - 61.0 °F 87% 30.15 in 10.0 mi NNE 6.9 mph - N/A   Scattered Clouds
7:53 AM 70.0 °F - 62.1 °F 76% 30.17 in 10.0 mi NE 9.2 mph - N/A   Scattered Clouds
8:53 AM 73.9 °F - 63.0 °F 68% 30.19 in 10.0 mi NE 10.4 mph - N/A   Scattered Clouds
9:53 AM 77.0 °F - 63.0 °F 62% 30.19 in 10.0 mi ENE 15.0 mph - N/A   Scattered Clouds
10:53 AM 78.1 °F - 62.1 °F 58% 30.19 in 10.0 mi ENE 12.7 mph - N/A   Scattered Clouds
11:53 AM 80.1 °F 81.2 °F 62.1 °F 54% 30.17 in 10.0 mi ENE 12.7 mph - N/A   Mostly Cloudy
12:53 PM 80.1 °F 81.1 °F 61.0 °F 52% 30.15 in 10.0 mi East 12.7 mph - N/A   Overcast
1:53 PM 79.0 °F - 61.0 °F 54% 30.14 in 10.0 mi ENE 15.0 mph - N/A   Overcast
2:53 PM 78.1 °F - 61.0 °F 56% 30.13 in 10.0 mi ENE 12.7 mph - N/A   Mostly Cloudy
3:53 PM 79.0 °F - 60.1 °F 52% 30.13 in 10.0 mi ENE 12.7 mph - N/A   Mostly Cloudy
4:53 PM 75.9 °F - 60.1 °F 58% 30.14 in 10.0 mi NE 12.7 mph - N/A   Mostly Cloudy
5:53 PM 75.0 °F - 61.0 °F 62% 30.16 in 10.0 mi NE 9.2 mph - N/A   Mostly Cloudy
6:53 PM 73.9 °F - 61.0 °F 64% 30.16 in 10.0 mi ENE 9.2 mph - N/A   Mostly Cloudy
7:53 PM 72.0 °F - 61.0 °F 68% 30.17 in 10.0 mi North 5.8 mph - N/A   Mostly Cloudy
8:53 PM 69.1 °F - 61.0 °F 75% 30.18 in 10.0 mi North 5.8 mph - N/A   Partly Cloudy
9:53 PM 68.0 °F - 62.1 °F 81% 30.17 in 10.0 mi North 5.8 mph - N/A   Clear
10:53 PM 66.9 °F - 62.1 °F 84% 30.17 in 10.0 mi NNE 5.8 mph - N/A   Clear
11:53 PM 66.9 °F - 62.1 °F 84% 30.17 in 10.0 mi NNE 5.8 mph - N/A   Partly Cloudy